Tracking 23758 objects as of 27-Oct-2021
HD Live streaming from Space Station
objects crossing your sky now

CENTAURI-1

Track CENTAURI-1 now!
10-day predictions


NORAD ID: 43809
Int'l Code: 2018-099BD
Perigee: 576.5 km
Apogee: 596.5 km
Inclination: 97.7 °
Period: 96.3 minutes
Semi major axis: 6957 km
RCS: Unknown
Launch date: December 3, 2018
Source: Australia (AUS)
Launch site: AIR FORCE WESTERN TEST RANGE (AFWTR)
aabbcc
Your satellite tracking list
Your tracking list is empty




NASA's NSSDC Master Catalog

Two Line Element Set (TLE):
1 43809U 18099BD  21300.19258451  .00000796  00000-0  76016-4 0  9998
2 43809  97.6509   8.1762 0014332 335.6581  24.3962 14.95969718157895
Source of the keplerian elements: AFSPC